Hourly Weather Roundup
Issued by NWS Central Illinois

Home | Current Version | Previous Version | Text Only | Print | Product List | Glossary On
Versions: 1 2 3 4 5 6 7 8 9 10 11 12 13 14 15 16 17 18 19 20 21 22 23 24 25 26 27 28 29 30 31 32 33 34 35 36 37 38 39 40 41 42 43 44 45 46 47 48 49 50
000
NZUS43 KILX 031710
HWRILX

AREA WEATHER ROUNDUP
NATIONAL WEATHER SERVICE, LINCOLN IL
1200 PM CDT WED JUN 03 2015


CITY           SKY/WX    TMP DP  RH WIND       PRES   REMARKS
BLOOMINGTON    PTSUNNY   70  59  68 S9        30.06S HAZE
CHAMPAIGN      PTSUNNY   72  57  59 SE9       30.05F
DANVILLE       MOSUNNY   69  56  64 SE6       30.05F
DECATUR        PTSUNNY   70  57  63 SE8       30.05F
EFFINGHAM      CLOUDY    68  53  59 CALM      30.08F
FLORA          MOSUNNY   66  56  68 CALM      30.08S
GALESBURG      MOSUNNY   71  58  63 SE9G17    30.01F
JACKSONVILLE   CLOUDY    70  60  70 S10G18    30.05S
LACON          PTSUNNY   71  58  63 S8        30.03S
LAWRENCEVILLE  PTSUNNY   68  54  60 MISG      30.08S
LITCHFIELD     MOSUNNY   68  58  69 S7        30.06S
$$


CITY           SKY/WX    TMP DP  RH WIND       PRES   REMARKS
LINCOLN        PTSUNNY   71  58  63 S5        30.03S
MACOMB         MOSUNNY   70  58  66 S13       30.03F
MATTOON        CLOUDY    69  57  65 VRB5      30.05F
MT CARMEL AP   PTSUNNY   68  52  56 NE3       30.08R
OLNEY-NOBLE AP CLOUDY    66  55  68 SE3       30.08S
PARIS          MOSUNNY   69  56  64 NE5       30.08F
PEORIA         PTSUNNY   72  58  61 S14       30.04S
PONTIAC        PTSUNNY   72  60  65 SE7       30.05F
RANTOUL        PTSUNNY   73  58  57 SE9       30.06S
ROBINSON       CLOUDY    65  54  66 CALM      30.09F
SPRINGFIELD    PTSUNNY   72  58  61 S12       30.05F
TAYLORVILLE    CLOUDY    68  59  73 S7        30.05F
$$

...REGIONAL REPORTS...


CITY           SKY/WX    TMP DP  RH WIND       PRES   REMARKS
CHICAGO O`HARE MOSUNNY   71  54  54 S7        30.04F
KANKAKEE       MOSUNNY   70  57  63 SE6       30.06F
MOLINE         PTSUNNY   73  57  57 SE16      29.98F
MOUNT VERNON   CLOUDY    68  55  64 SE5       30.08F
PITTSFIELD     CLOUDY    66  58  75 SE8       30.05S
QUINCY         CLOUDY    65  57  75 S12       30.03S
ROCKFORD       PTSUNNY   75  57  53 S12       30.04F
$$


CITY           SKY/WX    TMP DP  RH WIND       PRES   REMARKS
BURLINGTON     PTSUNNY   72  60  66 S12       30.00S
CEDAR RAPIDS   MOSUNNY   73  59  61 SE17G25   29.92F
DES MOINES     CLOUDY    72  64  76 SE12      29.87R
KIRKSVILLE     RAIN      62  62 100 S7        30.01F FOG
OTTUMWA        CLOUDY    72  62  71 S18       29.93F
ST LOUIS       PTSUNNY   70  57  63 SE7       30.06S
$$


CITY           SKY/WX    TMP DP  RH WIND       PRES   REMARKS
TERRE HAUTE    CLOUDY    64  54  69 VRB5      30.09S
EVANSVILLE     MOSUNNY   69  55  60 VRB5      30.07S
INDIANAPOLIS   PTSUNNY   67  52  58 E7        30.08R
LAFAYETTE      PTSUNNY   68  55  63 CALM      30.07F
MADISON        PTSUNNY   73  55  53 S13G18    30.00F
MILWAUKEE      MOSUNNY   65  51  60 SE12      30.06S
$$




USA.gov is the U.S. government's official web portal to all federal, state and local government web resources and services.